Effective Sunday, March 17, 2024, the National Weather Service National Data Buoy Center will discontinue its Dial-A-Buoy Interactive Voice Response system. For more information, see Service Change Notice 24-06 (PDF).

Station PFXC1 - 9410670 - Los Angeles Pier F, CA Image indicating link to RSS feed of recent meteorological observations for station PFXC1


Conditions at PFXC1 as of
(11:18 am PST)
1918 GMT on 03/02/2024:
     

Click on the graph icon in the table below to see a time series plot of the last five days of that observation.

5-day plot - Wind Direction Wind Direction (WDIR): SW ( 220 deg true )
5-day plot - Wind Speed Wind Speed (WSPD): 11.1 kts
5-day plot - Wind Gust Wind Gust (GST): 12.0 kts
5-day plot - Atmospheric Pressure Atmospheric Pressure (PRES):30.04 in
5-day plot - Air Temperature Air Temperature (ATMP): 59.2 °F
5-day plot - Wind Speed at 10 Meters Wind Speed at 10 meters (WSPD10M): 9.7 kts
5-day plot - Wind Speed at 20 Meters Wind Speed at 20 meters (WSPD20M): 11.7 kts
5-day plot -  Wind Speed, Wind Gust and Atmospheric Pressure Combined plot of Wind Speed, Gust, and Air Pressure
NOS Water Level Observation Network Water Level
Previous observations
TIME
(PST)
5-day plot - Wind Direction
WDIR
 
5-day plot - Wind Speed
WSPD
kts
5-day plot - Wind Gust
GST
kts
5-day plot - Wave Height
WVHT
ft
5-day plot - Dominant Wave Period
DPD
sec
5-day plot - Average Wave Period
APD
sec
5-day plot - Mean Wave Direction
MWD
 
5-day plot - Atmospheric Pressure
PRES
in
5-day plot - Pressure Tendency
PTDY
in
5-day plot - Air Temperature
ATMP
°F
5-day plot - Water Temperature
WTMP
°F
5-day plot - Dew Point
DEWP
°F
5-day plot - Salinity
SAL
psu
5-day plot - Visibility
VIS
nmi
5-day plot - Tide (above MLLW)
TIDE
ft
2024-03-02 11:06 am SW 12.0 13.0----30.04- 59.0-----
2024-03-02 10:54 am SW 8.0 9.9----30.05- 57.9-----
2024-03-02 10:42 amWSW 8.9 20.0----30.03- 57.4-----
2024-03-02 10:30 am SW 17.1 20.0----30.03- 57.9-----
2024-03-02 10:18 am SW 14.0 18.1----30.03- 59.2-----
2024-03-02 10:06 am SW 12.0 15.9----30.03- 58.8-----
2024-03-02 09:54 amSSW 11.1 12.0----30.02- 59.2-----
2024-03-02 09:42 amSSW 11.1 14.0----30.03- 59.5-----
2024-03-02 09:30 amSSW 11.1 13.0----30.02- 59.2-----
2024-03-02 09:18 amSSW 12.0 13.0----30.03- 59.7-----
2024-03-02 09:06 amSSW 12.0 14.0----30.04- 59.2-----
2024-03-02 08:54 am SW 13.0 14.0----30.02- 58.8-----
2024-03-02 08:42 am SW 9.9 13.0----30.03- 59.4-----
2024-03-02 08:36 amSSW 12.0 15.0----30.03- 59.2-----
2024-03-02 08:24 am SW 11.1 13.0----30.02- 59.4-----
2024-03-02 08:12 am SW 12.0 12.0----30.02- 59.2-----
2024-03-02 08:00 am SW 8.9 9.9----30.01- 59.4-----
2024-03-02 07:48 am SW 8.9 11.1----30.02- 59.4-----
2024-03-02 07:36 am SW 8.9 9.9----30.01- 58.3-----
2024-03-02 07:24 amSSW 7.0 9.9----30.01-------
2024-03-02 07:12 amSSW 8.9 9.9----30.00- 58.1-----
2024-03-02 07:00 am SW 8.9 9.9----30.01+0.02 57.6-----
2024-03-02 06:48 am SW 5.1 6.0----30.00- 56.5-----
2024-03-02 06:36 amWSW 5.1 6.0----30.00- 56.1-----
2024-03-02 06:30 amWSW 2.9 4.1----30.00- 56.1-----
2024-03-02 06:18 am W 5.1 7.0----30.01- 55.9-----
2024-03-02 06:06 amWSW 4.1 6.0----30.00- 56.1-----
2024-03-02 05:54 amWSW 7.0 11.1----30.00- 55.9-----
2024-03-02 05:42 am W 7.0 9.9----30.00- 55.8-----
2024-03-02 05:30 am W 8.0 13.0----30.00- 56.1-----
2024-03-02 05:18 am W 7.0 11.1----29.99- 56.8-----
2024-03-02 05:06 am W 11.1 15.0----29.99- 57.7-----
2024-03-02 04:54 amWSW 6.0 7.0----30.00- 58.5-----
2024-03-02 04:48 am W 4.1 6.0----29.99-------
2024-03-02 04:36 am W 4.1 5.1----29.99-------
2024-03-02 04:24 am W 4.1 5.1----29.99- 58.3-----
2024-03-02 04:12 amWSW 5.1 6.0----29.99- 58.3-----
2024-03-02 04:00 amWSW 5.1 8.0----29.99-0.06 58.1-----
2024-03-02 03:48 am W 5.1 8.9----29.99- 57.9-----
2024-03-02 03:36 amWSW 6.0 8.9----29.99- 57.9-----
2024-03-02 03:24 am-------30.00-------
2024-03-02 03:12 am SW 9.9 11.1----30.01- 58.1-----
2024-03-02 03:00 am SW 13.0 14.0----30.01-0.05------
2024-03-02 02:54 am SW 9.9 11.1----30.01-------
2024-03-02 02:42 am SW 9.9 11.1----30.02-------
2024-03-02 02:30 amSSW 8.9 9.9----30.02- 57.9-----
2024-03-02 02:18 amSSW 8.9 9.9----30.02-------
2024-03-02 02:06 am SW 8.0 9.9----30.03-------
2024-03-02 01:54 amSSW 8.0 8.9----30.03- 57.7-----
2024-03-02 01:42 am SW 5.1 8.9----30.04- 57.2-----
2024-03-02 01:30 am SW 8.9 13.0----30.05- 57.0-----
2024-03-02 01:18 am SW 15.0 17.1----30.05- 57.6-----
2024-03-02 01:12 am SW 11.1 12.0----30.06- 57.7-----
2024-03-02 01:00 amWSW 12.0 15.0----30.06- 57.4-----
2024-03-02 12:48 am SW 15.9 17.1----30.06- 58.8-----
2024-03-02 12:36 amSSW 14.0 15.9----30.05- 59.4-----
2024-03-02 12:24 amSSW 12.0 14.0----30.06- 59.7-----
2024-03-02 12:12 amSSW 12.0 13.0----30.06- 59.7-----
2024-03-02 12:00 amSSW 12.0 13.0----30.06- 59.7-----
2024-03-01 11:48 pmSSW 11.1 13.0----30.06- 59.5-----
2024-03-01 11:36 pmSSW 11.1 13.0----30.06- 59.7-----
2024-03-01 11:24 pmSSW 13.0 14.0----30.06- 59.5-----
2024-03-01 11:12 pmSSW 13.0 15.9----30.07- 59.5-----
2024-03-01 11:00 pmSSW 13.0 15.0----30.07-0.01 59.4-----
2024-03-01 10:48 pmSSW 15.0 15.9----30.07- 59.4-----
2024-03-01 10:42 pmSSW 15.0 15.9----30.07- 59.4-----
2024-03-01 10:30 pmSSW 14.0 15.9----30.07- 59.2-----
2024-03-01 10:18 pmSSW 13.0 14.0----30.07- 59.0-----
2024-03-01 10:06 pmSSW 14.0 15.9----30.07- 59.0-----
2024-03-01 09:54 pm SW 14.0 15.0----30.08- 59.0-----
2024-03-01 09:42 pmSSW 14.0 15.0----30.08- 59.2-----
2024-03-01 09:30 pmSSW 13.0 15.0----30.08- 59.2-----
2024-03-01 09:18 pm SW 12.0 13.0----30.08- 59.2-----
2024-03-01 09:06 pmSSW 11.1 12.0----30.08- 58.8-----
2024-03-01 08:54 pm S 8.9 9.9----30.08- 59.2-----
2024-03-01 08:42 pmSSW 7.0 9.9----30.08- 59.0-----
2024-03-01 08:36 pm S 8.9 11.1----30.08- 59.0-----
2024-03-01 08:24 pm SW 11.1 13.0----30.08- 59.2-----
2024-03-01 08:12 pmSSW 9.9 11.1----30.08- 59.0-----
2024-03-01 08:00 pmSSW 8.0 8.9----30.08+0.00 59.0-----
2024-03-01 07:48 pmSSW 8.9 9.9----30.08- 59.0-----
2024-03-01 07:36 pm S 7.0 8.0----30.08- 58.8-----
2024-03-01 07:24 pm S 8.0 8.0----30.07- 58.8-----
2024-03-01 07:12 pm S 6.0 8.0----30.07- 58.6-----
2024-03-01 07:00 pm S 6.0 8.0----30.07+0.00 58.8-----
2024-03-01 06:48 pmSSW 7.0 8.0----30.07- 58.6-----
2024-03-01 06:36 pmSSW 8.9 9.9----30.07- 59.2-----
2024-03-01 06:24 pmSSW 8.0 9.9----30.07- 59.2-----
2024-03-01 06:12 pm SW 8.9 9.9----30.07- 59.4-----
2024-03-01 06:00 pm SW 8.0 11.1----30.07+0.00 59.2-----
2024-03-01 05:48 pmWSW 8.9 12.0----30.07- 59.0-----
2024-03-01 05:36 pmWSW 8.9 12.0----30.07- 58.8-----
2024-03-01 05:24 pmWSW 8.0 9.9----30.08- 59.2-----
2024-03-01 05:12 pm SW 8.0 9.9----30.08- 60.1-----
2024-03-01 05:00 pmWSW 7.0 9.9----30.08- 60.1-----
2024-03-01 04:48 pmWSW 7.0 9.9----30.07- 60.3-----
2024-03-01 04:36 pmWSW 8.0 9.9----30.07- 60.8-----
2024-03-01 04:24 pmWSW 6.0 8.0----30.07- 61.5-----
2024-03-01 04:12 pmWSW 7.0 9.9----30.07- 61.9-----
2024-03-01 04:00 pmWSW 9.9 11.1----30.07- 62.1-----
2024-03-01 03:48 pm SW 11.1 11.1----30.07- 62.2-----
2024-03-01 03:36 pm SW 9.9 11.1----30.07- 62.4-----
2024-03-01 03:24 pm SW 9.9 13.0----30.08- 62.2-----
2024-03-01 03:12 pm SW 11.1 12.0----30.07- 63.0-----
2024-03-01 03:00 pm SW 11.1 11.1----30.08- 63.0-----
2024-03-01 02:48 pm SW 9.9 11.1----30.09- 63.1-----
2024-03-01 02:42 pmSSW 9.9 11.1----30.08- 63.0-----
2024-03-01 02:30 pm SW 8.0 8.9----30.09- 63.9-----
2024-03-01 02:18 pm SW 7.0 8.9----30.10- 63.3-----
2024-03-01 02:06 pm SW 8.0 8.9----30.10- 63.7-----
2024-03-01 01:54 pm SW 8.0 8.9----30.10- 63.0-----
2024-03-01 01:42 pmSSW 8.0 9.9----30.11- 63.0-----
2024-03-01 01:30 pm SW 8.0 8.9----30.11- 64.0-----
2024-03-01 01:18 pmSSW 8.0 8.9----30.11- 62.4-----
2024-03-01 01:06 pmSSW 8.0 8.9----30.12- 61.2-----
2024-03-01 12:48 pmSSW 7.0 7.0----30.13- 61.3-----
2024-03-01 12:42 pm S 6.0 8.0----30.12- 60.1-----
2024-03-01 12:30 pm S 7.0 8.0----30.12- 60.8-----
2024-03-01 12:18 pm S 7.0 8.0----30.13- 61.0-----
2024-03-01 12:06 pm S 7.0 7.0----30.14- 61.2-----
2024-03-01 11:48 am S 7.0 8.0----30.14- 60.3-----
2024-03-01 11:36 am S 5.1 7.0----30.15- 62.4-----
2024-03-01 11:24 am S 5.1 6.0----30.16- 61.0-----
2024-03-01 11:12 am S 5.1 6.0----30.16- 61.5-----
2024-03-01 11:00 am SE 5.1 6.0----30.16- 61.0-----